Weather History for Summerland, BC

Change the Weather History Date:

Thursday, February 28, 2013

  Actual Average Record
Temperature  
Mean Temperature 36 °F -  
Max Temperature 43 °F - - ()
Min Temperature 29 °F - - ()
Degree Days  
Heating Degree Days 29    
Moisture  
Dew Point 31 °F    
Average Humidity 80    
Maximum Humidity 92    
Minimum Humidity 61    
Precipitation  
Precipitation 0.00 in - - ()
Sea Level Pressure  
Sea Level Pressure 30.30 in    
Wind  
Wind Speed 5 mph ()    
Max Wind Speed 17 mph    
Max Gust Speed 31 mph    
T = Trace of Precipitation, MM = Missing Value Source: Averaged Metar Reports

Daily Weather History Graph

Daily Weather History Graph

Search for Another Location

Airport:

Trip Planner

Search our weather history database for the weather conditions in past years. The results will help you decide how hot, cold, wet, or windy it might be!

Date:

Astronomy

Feb. 28, 2013 Rise Set
Actual Time 6:42 AM PST 5:40 PM PST
Civil Twilight 6:10 AM PST 6:12 PM PST
Nautical Twilight 5:33 AM PST 6:49 PM PST
Astronomical Twilight 4:56 AM PST 7:26 PM PST
Moon 9:38 PM PST 7:33 AM PST
Length of Visible Light 12h 02m
Length of Day
10h 57m
Waning Gibbous, 90% of the Moon is Illuminated
Feb 28
Waning Gibbous
Mar 4
Last Quarter
Mar 11
New
Mar 19
First Quarter
Mar 27
Full

Hourly Weather History & Observations

Time (PST) Temp. Windchill Dew Point Humidity Pressure Visibility Wind Dir Wind Speed Gust Speed Precip Events Conditions
12:00 AM 35.8 °F 31.9 °F 31.1 °F 83% 30.28 in - WNW 4.6 mph - N/A   Unknown
1:00 AM 34.3 °F 31.4 °F 30.4 °F 85% 30.27 in - West 3.5 mph - N/A   Unknown
2:00 AM 33.8 °F 27.7 °F 30.0 °F 86% 30.29 in - WNW 6.9 mph - N/A   Unknown
3:00 AM 31.5 °F 24.2 °F 28.9 °F 90% 30.30 in - WNW 8.1 mph - N/A   Unknown
4:00 AM 32 °F - 28 °F 81% 30.30 in - WNW 6.9 mph - -  
4:00 AM 31.6 °F 25.1 °F 28.4 °F 88% 30.30 in - WNW 6.9 mph - N/A   Unknown
5:00 AM 30.6 °F 23.8 °F 27.1 °F 87% 30.32 in - WNW 6.9 mph - N/A   Unknown
6:00 AM 29.8 °F 23.0 °F 26.2 °F 86% 30.34 in - West 6.9 mph - N/A   Unknown
7:00 AM 30.0 °F 22.4 °F 25.7 °F 84% 30.34 in - WNW 8.1 mph - N/A   Unknown
8:00 AM 32.9 °F 27.5 °F 25.2 °F 73% 30.33 in - WNW 5.8 mph - N/A   Unknown
9:00 AM 36.9 °F - 27.0 °F 67% 30.35 in - NW 2.3 mph - N/A   Unknown
10:00 AM 36 °F - 31 °F 74% 30.33 in - SE 3.5 mph - -  
10:00 AM 35.8 °F 33.0 °F 30.7 °F 82% 30.33 in - SE 3.5 mph - N/A   Unknown
11:00 AM 38.7 °F - 30.7 °F 73% 30.32 in - East 1.2 mph - N/A   Unknown
12:00 PM 38.3 °F 35.9 °F 31.6 °F 77% 30.32 in - NE 3.5 mph - N/A   Unknown
1:00 PM 37.8 °F - 31.1 °F 77% 30.32 in - NE 2.3 mph - N/A   Unknown
2:00 PM 35.8 °F - 31.3 °F 84% 30.31 in - SE 1.2 mph - N/A   Unknown
3:00 PM 36.3 °F - 33.8 °F 91% 30.30 in - North 1.2 mph - N/A   Unknown
4:00 PM 36 °F - 35 °F 92% 30.32 in - North 1.2 mph - -  
5:00 PM 38.8 °F - 36.0 °F 89% 30.29 in - East 2.3 mph - N/A   Unknown
6:00 PM 39.2 °F 35.9 °F 35.6 °F 87% 30.27 in - SSE 4.6 mph - N/A   Unknown
7:00 PM 42.1 °F 34.9 °F 34.9 °F 76% 30.28 in - South 13.8 mph 27.6 mph N/A   Unknown
9:00 PM 43.3 °F 35.5 °F 34.3 °F 71% 30.25 in - South 17.3 mph 31.1 mph N/A   Unknown
10:00 PM 44 °F - 35 °F 61% 30.27 in - South 15.0 mph - -  
10:00 PM 43.5 °F 36.4 °F 34.9 °F 72% 30.27 in - South 15.0 mph 26.5 mph N/A   Unknown
11:00 PM 43.0 °F 37.2 °F 35.6 °F 75% 30.27 in - South 10.4 mph 21.9 mph N/A   Unknown